CZ-6A DEB, 55534

Orbit data source: Space-Track

CZ-6A DEB, 55534 is space debris in SSO originally from a launch on Fri, 11 Nov 2022 UTC launched from the Taiyaun Space Center, China (TSC). Debris objects in space refer to the collection of defunct objects orbiting the Earth. Examples of debris include non-operational satellites, rocket bodies, and fragments generated from explosions, collisions, or faulty payload assembly.

Loading next visibility...
Identifier
55534, 2022-151YG
Orbit
SSO
Country
Flag of CNCN / PRC
Related business
Manufacturer
SAST
Mission
Spacecraft
Bus & Motor
Unknown
Mass
Unknown
Launch date (UTC)
2022-11-11 (4 years ago)
Launch vehicle
Unknown
Launch site
Taiyaun Space Center, China (TSC)
Object type
Payload
Rocket body
Debris
Shape & HBR
Unknown shape, 0.1 m
Radar Cross Section
Medium (>0.1 m² and <1 m²)

Expand to show TLE details & history
Last TLE update: 16 hours ago

TLE from 16 hours ago
0 CZ-6A DEB
1 55534U 22151YG  26237.25581080  .00055095  00000-0  38957-2 0  9990
2 55534  98.6425 330.4198 0033561   9.6687 350.5174 15.04197047196436
Epoch: 2026-08-25T06:08Z
TLE epoch observation values (Epoch: 2026-08-25T06:08:22.053Z)
Latitude
-0.00004°
Longitude
-95.19786°
Altitude
534.053 km
Speed
7.608 km/s
True Right ascension
22h 01m 40s
True Declination
0° 00' 00"
Sunlit
Object was in full shadow at epoch
Visualization orbit readout
Latitude
Unknown
Longitude
Unknown
Altitude
Unknown
Speed
Unknown
Apparent Right ascension
Unknown
Apparent Declination
Unknown
Sunlit
N/A
Visualization observer readout
Local Sidereal Time
13:19:54
Azimuth
Unknown
Elevation
Unknown
Doppler factor
Unknown
Orbital elements
Apogee altitude
574.27 km
Perigee altitude
527.76 km
Semi-major axis
6,929.152 km
Eccentricity
0.00336
Inclination
98.6425°
RAAN
330.4198°
Arg. of periapsis
9.6687°
True anomaly
350.45378°
Mean anomaly
350.5174°
Eccentric anomaly
350.48562°
Mean motion
3.7629 °/min
Orbital period
95.67 mins
BSTAR
0.0038957
Loading maneuver chart data...
Computing Atmospheric mass density...
Loading historical data...
Loading historical data...
Loading historical data...
Loading historical data...
Loading historical data...
Loading historical data...
Loading historical data...

Documentation

Showing up to 5 results
|